Location: Melbourne
(37.8666°S, 145.1333°E)
Time: 01:01:57
(UTC+11:00)

Iridium 21 - Visible Passes

Search period start: 22 November 2017 00:00
Search period end: 02 December 2017 00:00
Orbit: 776 x 779 km, 86.4° (Epoch: 20 November)

Date Brightness Start Highest point End Pass type
(mag) Time Alt. Az. Time Alt. Az. Time Alt. Az.
24 Nov 8.5 21:00:38 10° WNW 21:03:46 16° WSW 21:06:56 10° SW visible
27 Nov 9.1 21:03:08 10° W 21:04:06 10° WSW 21:05:04 10° WSW visible
29 Nov 9.1 05:19:51 10° ESE 05:20:22 10° ESE 05:20:53 10° ESE visible
